EWG2LW EDDK-EDDL

Flight info

Callsign EWG2LW
Flight time 0h 14m
Altitude 9000
Route NVO2R NVO T857 ELDAR/N0320F100 T857 BIKMU BIKMU1A
Aircraft A320/M-SDE3FGHIRWY/LB1

Departure

Time 2026-05-06 11:14
Airport Cologne Bonn Airport (EDDK)

Arrival

Time 2026-05-06 11:29
Airport Düsseldorf Airport (EDDL)
Time Latitude Longitude Altitude Speed Heading
2026-05-06 10:58 50.88125 7.12042 236 ft 0 kts 216°
2026-05-06 11:07 50.88144 7.12064 232 ft 4 kts 219°
2026-05-06 11:07 50.88162 7.12087 234 ft 4 kts 210°
2026-05-06 11:07 50.88183 7.12096 236 ft 4 kts 142°
2026-05-06 11:07 50.88196 7.12063 234 ft 4 kts 116°
2026-05-06 11:08 50.88203 7.12043 234 ft 0 kts 126°
2026-05-06 11:10 50.88188 7.12076 234 ft 8 kts 126°
2026-05-06 11:10 50.88154 7.12152 234 ft 9 kts 126°
2026-05-06 11:10 50.88105 7.12265 232 ft 14 kts 113°
2026-05-06 11:10 50.88060 7.12405 233 ft 18 kts 129°
2026-05-06 11:11 50.87962 7.12552 233 ft 20 kts 137°
2026-05-06 11:11 50.87851 7.12614 232 ft 19 kts 173°
2026-05-06 11:11 50.87691 7.12811 233 ft 34 kts 137°
2026-05-06 11:11 50.87506 7.13080 233 ft 34 kts 137°
2026-05-06 11:12 50.87319 7.13349 232 ft 38 kts 137°
2026-05-06 11:12 50.87121 7.13637 239 ft 39 kts 137°
2026-05-06 11:12 50.86937 7.13910 249 ft 20 kts 126°
2026-05-06 11:12 50.86911 7.14101 255 ft 16 kts 99°
2026-05-06 11:13 50.86893 7.14277 257 ft 17 kts 99°
2026-05-06 11:13 50.86873 7.14465 261 ft 16 kts 98°
2026-05-06 11:13 50.86943 7.14507 259 ft 17 kts 320°
2026-05-06 11:13 50.86956 7.14490 258 ft 0 kts 318°
2026-05-06 11:14 50.87141 7.14222 250 ft 87 kts 317°
2026-05-06 11:14 50.87775 7.13306 539 ft 137 kts 317°
2026-05-06 11:14 50.88500 7.12260 1550 ft 145 kts 316°
2026-05-06 11:14 50.89275 7.11142 2484 ft 161 kts 317°
2026-05-06 11:15 50.90164 7.09837 3229 ft 188 kts 312°
2026-05-06 11:15 50.90882 7.07960 4124 ft 212 kts 289°
2026-05-06 11:15 50.91106 7.05617 5341 ft 218 kts 266°
2026-05-06 11:15 50.90764 7.03257 6594 ft 226 kts 251°
2026-05-06 11:16 50.90223 7.00748 7426 ft 254 kts 250°
2026-05-06 11:16 50.89629 6.98007 8476 ft 270 kts 250°
2026-05-06 11:16 50.89010 6.95132 8612 ft 275 kts 250°
2026-05-06 11:16 50.88408 6.92272 8687 ft 273 kts 251°
2026-05-06 11:17 50.87910 6.89370 8824 ft 276 kts 265°
2026-05-06 11:17 50.88361 6.86434 8856 ft 282 kts 299°
2026-05-06 11:17 50.89556 6.84018 8572 ft 282 kts 304°
2026-05-06 11:17 50.90461 6.81347 8829 ft 276 kts 288°
2026-05-06 11:18 50.91035 6.78378 9168 ft 278 kts 284°
2026-05-06 11:18 50.91608 6.75474 8860 ft 273 kts 285°
2026-05-06 11:18 50.92173 6.72630 8343 ft 274 kts 285°
2026-05-06 11:18 50.92736 6.69763 7946 ft 270 kts 285°
2026-05-06 11:19 50.93290 6.66942 7566 ft 266 kts 285°
2026-05-06 11:19 50.93839 6.64161 7196 ft 262 kts 285°
2026-05-06 11:19 50.94380 6.61425 6827 ft 259 kts 285°
2026-05-06 11:19 50.94892 6.58711 6450 ft 255 kts 286°
2026-05-06 11:20 50.95339 6.56003 6074 ft 252 kts 285°
2026-05-06 11:20 50.95920 6.53417 5685 ft 247 kts 299°
2026-05-06 11:20 50.96789 6.51099 5371 ft 242 kts 303°
2026-05-06 11:20 50.97668 6.48861 5068 ft 236 kts 303°
2026-05-06 11:21 50.98529 6.46665 4759 ft 232 kts 303°
2026-05-06 11:21 50.99372 6.44515 4505 ft 227 kts 303°
2026-05-06 11:21 51.00280 6.42502 4300 ft 223 kts 317°
2026-05-06 11:21 51.01467 6.40949 4094 ft 221 kts 326°
2026-05-06 11:22 51.02752 6.39609 3920 ft 221 kts 329°
2026-05-06 11:22 51.04108 6.38432 3791 ft 222 kts 333°
2026-05-06 11:22 51.05479 6.37317 3684 ft 221 kts 335°
2026-05-06 11:22 51.06954 6.36685 3616 ft 220 kts 355°
2026-05-06 11:23 51.08468 6.36904 3534 ft 221 kts 15°
2026-05-06 11:23 51.09850 6.37963 3462 ft 223 kts 34°
2026-05-06 11:23 51.10927 6.39751 3376 ft 225 kts 51°
2026-05-06 11:23 51.11883 6.41733 3334 ft 224 kts 49°
2026-05-06 11:24 51.12864 6.43757 3340 ft 245 kts 49°
2026-05-06 11:24 51.13929 6.45960 3314 ft 255 kts 50°
2026-05-06 11:24 51.15014 6.48211 3267 ft 255 kts 50°
2026-05-06 11:24 51.16094 6.50453 3223 ft 255 kts 50°
2026-05-06 11:25 51.16808 6.51936 3171 ft 254 kts 51°
2026-05-06 11:25 51.17884 6.54170 3052 ft 254 kts 50°
2026-05-06 11:25 51.18953 6.56392 2996 ft 252 kts 51°
2026-05-06 11:25 51.20018 6.58608 2790 ft 252 kts 51°
2026-05-06 11:26 51.21077 6.60816 2476 ft 249 kts 50°
2026-05-06 11:26 51.22123 6.62995 2138 ft 245 kts 50°
2026-05-06 11:26 51.23124 6.65087 1800 ft 227 kts 50°
2026-05-06 11:26 51.24031 6.66984 1505 ft 201 kts 50°
2026-05-06 11:27 51.24828 6.68651 1258 ft 177 kts 50°
2026-05-06 11:27 51.25552 6.70159 1027 ft 166 kts 49°
2026-05-06 11:27 51.26227 6.71530 870 ft 146 kts 50°
2026-05-06 11:27 51.26750 6.72757 677 ft 128 kts 52°
2026-05-06 11:28 51.27265 6.73836 406 ft 118 kts 44°
2026-05-06 11:28 51.27787 6.74859 280 ft 119 kts 46°
2026-05-06 11:28 51.28290 6.75897 141 ft 112 kts 49°
2026-05-06 11:28 51.28697 6.76744 131 ft 75 kts 52°
2026-05-06 11:29 51.28919 6.77216 126 ft 37 kts 53°
2026-05-06 11:29 51.29016 6.77436 130 ft 17 kts 69°
2026-05-06 11:29 51.29000 6.77571 127 ft 8 kts 131°
2026-05-06 11:29 51.28928 6.77656 127 ft 15 kts 159°
2026-05-06 11:30 51.28874 6.77579 127 ft 24 kts 234°
2026-05-06 11:30 51.28754 6.77327 124 ft 31 kts 233°
2026-05-06 11:30 51.28629 6.77069 125 ft 27 kts 232°
2026-05-06 11:30 51.28518 6.76835 125 ft 25 kts 233°
2026-05-06 11:31 51.28421 6.76809 126 ft 15 kts 143°
2026-05-06 11:31 51.28305 6.76861 129 ft 19 kts 186°
2026-05-06 11:31 51.28177 6.76838 131 ft 18 kts 187°
2026-05-06 11:31 51.28063 6.76791 131 ft 12 kts 199°
2026-05-06 11:32 51.28056 6.76741 128 ft 3 kts 281°
2026-05-06 11:32 51.28059 6.76709 126 ft 1 kts 277°
2026-05-06 11:32 51.28059 6.76707 126 ft 0 kts 276°